| time (UTC) | temp F | wind direction | speed MPH | gust MPH | rain 1hr in | rain 24hr in | rain mn in | humidity % | barometer mb |
| 20260502164024 | 70 | 51 | 1.0 | 7.0 | 0.00 | 0.00 | 0.00 | 42 | 1021.8 |
| 20260502163023 | 69 | 275 | 3.0 | 6.0 | 0.00 | 0.00 | 0.00 | 42 | 1021.7 |
| 20260502162505 | 68 | 255 | 2.0 | 7.0 | 0.00 | 0.00 | 0.00 | 42 | 1021.7 |
| 20260502161021 | 67 | 23 | 2.0 | 6.0 | 0.00 | 0.00 | 0.00 | 42 | 1021.7 |
| 20260502151013 | 64 | 27 | 3.0 | 5.0 | 0.00 | 0.00 | 0.00 | 53 | 1021.5 |
| 20260502123010 | 50 | 269 | 0.0 | 0.0 | 0.00 | 0.00 | 0.00 | 92 | 1020.2 |
| 20260502122009 | 49 | 269 | 0.0 | 0.0 | 0.00 | 0.00 | 0.00 | 92 | 1020.0 |
| 20260502121005 | 48 | 269 | 0.0 | 0.0 | 0.00 | 0.00 | 0.00 | 91 | 1019.7 |
| 20260502115003 | 48 | 269 | 0.0 | 0.0 | 0.00 | 0.00 | 0.00 | 91 | 1019.4 |
| 20260502114002 | 49 | 269 | 0.0 | 0.0 | 0.00 | 0.00 | 0.00 | 90 | 1019.4 |
| 20260502113000 | 49 | 269 | 0.0 | 0.0 | 0.00 | 0.00 | 0.00 | 90 | 1019.3 |
| 20260502112438 | 49 | 269 | 0.0 | 0.0 | 0.00 | 0.00 | 0.00 | 89 | 1019.1 |
| 20260502111001 | 50 | 269 | 0.0 | 0.0 | 0.00 | 0.00 | 0.00 | 89 | 1018.9 |
| 20260502110001 | 50 | 269 | 0.0 | 0.0 | 0.00 | 0.00 | 0.00 | 89 | 1018.8 |
| 20260502105002 | 50 | 269 | 0.0 | 1.0 | 0.00 | 0.00 | 0.00 | 88 | 1018.7 |
| 20260502104002 | 51 | 269 | 0.0 | 1.0 | 0.00 | 0.00 | 0.00 | 87 | 1018.7 |
| 20260502103001 | 51 | 269 | 1.0 | 3.0 | 0.00 | 0.00 | 0.00 | 88 | 1018.8 |
| 20260502102001 | 51 | 264 | 1.0 | 2.0 | 0.00 | 0.00 | 0.00 | 87 | 1018.6 |
| 20260502101445 | 51 | 259 | 0.0 | 1.0 | 0.00 | 0.00 | 0.00 | 87 | 1018.5 |
| 20260502100441 | 51 | 265 | 0.0 | 0.0 | 0.00 | 0.00 | 0.00 | 86 | 1018.5 |
| 20260502091000 | 53 | 274 | 3.0 | 4.0 | 0.00 | 0.00 | 0.00 | 82 | 1018.3 |
| 20260502070944 | 54 | 264 | 1.0 | 2.0 | 0.00 | 0.00 | 0.00 | 82 | 1018.4 |
| 20260502070919 | 53 | 265 | 0.0 | 1.0 | 0.00 | 0.00 | 0.00 | 84 | 1018.5 |
| 20260502065423 | 54 | 262 | 0.0 | 1.0 | 0.00 | 0.00 | 0.00 | 82 | 1018.5 |
| 20260502063940 | 54 | 261 | 0.0 | 1.0 | 0.00 | 0.00 | 0.00 | 83 | 1018.6 |
| 20260502062938 | 54 | 262 | 0.0 | 0.0 | 0.00 | 0.00 | 0.00 | 81 | 1018.6 |
| 20260502061938 | 55 | 262 | 0.0 | 0.0 | 0.00 | 0.00 | 0.00 | 79 | 1018.7 |
| 20260502060936 | 56 | 262 | 0.0 | 4.0 | 0.00 | 0.00 | 0.00 | 79 | 1018.6 |
| 20260502055933 | 56 | 243 | 2.0 | 6.0 | 0.00 | 0.00 | 0.00 | 80 | 1018.5 |
| 20260502055415 | 55 | 203 | 2.0 | 5.0 | 0.00 | 0.00 | 0.00 | 83 | 1018.5 |
| 20260502053932 | 55 | 264 | 0.0 | 3.0 | 0.00 | 0.00 | 0.00 | 85 | 1018.5 |
| 20260502053410 | 54 | 266 | 1.0 | 3.0 | 0.00 | 0.00 | 0.00 | 85 | 1018.3 |
| 20260502051930 | 54 | 188 | 0.0 | 0.0 | 0.00 | 0.00 | 0.00 | 86 | 1018.4 |
| 20260502050930 | 54 | 86 | 0.0 | 0.0 | 0.00 | 0.00 | 0.00 | 86 | 1018.6 |
| 20260502045930 | 55 | 86 | 0.0 | 0.0 | 0.00 | 0.00 | 0.00 | 86 | 1018.6 |
| 20260502044929 | 55 | 86 | 0.0 | 0.0 | 0.00 | 0.00 | 0.00 | 87 | 1018.6 |
| 20260502043929 | 55 | 86 | 0.0 | 0.0 | 0.00 | 0.00 | 0.00 | 86 | 1018.5 |
| 20260502042930 | 55 | 86 | 0.0 | 0.0 | 0.00 | 0.00 | 0.00 | 86 | 1018.4 |
| 20260502041929 | 56 | 86 | 0.0 | 0.0 | 0.00 | 0.00 | 0.00 | 86 | 1018.4 |
| 20260502040930 | 56 | 86 | 0.0 | 0.0 | 0.00 | 0.00 | 0.00 | 84 | 1018.3 |
| 20260502040410 | 56 | 86 | 0.0 | 0.0 | 0.00 | 0.00 | 0.00 | 84 | 1018.3 |
| 20260502034929 | 56 | 86 | 0.0 | 0.0 | 0.00 | 0.00 | 0.00 | 84 | 1018.1 |
| 20260502034357 | 56 | 86 | 0.0 | 0.0 | 0.00 | 0.00 | 0.00 | 83 | 1018.1 |
| 20260502032922 | 56 | 86 | 0.0 | 0.0 | 0.00 | 0.00 | 0.00 | 82 | 1018.2 |
| 20260502031920 | 57 | 86 | 0.0 | 0.0 | 0.00 | 0.00 | 0.00 | 79 | 1018.1 |
| 20260502030922 | 57 | 86 | 0.0 | 0.0 | 0.00 | 0.00 | 0.00 | 80 | 1018.0 |
| 20260502025917 | 58 | 86 | 0.0 | 0.0 | 0.00 | 0.00 | 0.00 | 78 | 1017.9 |
| 20260502025359 | 58 | 86 | 0.0 | 0.0 | 0.00 | 0.00 | 0.00 | 77 | 1017.8 |
| 20260502023907 | 59 | 86 | 0.0 | 0.0 | 0.00 | 0.00 | 0.00 | 77 | 1017.5 |
| 20260502022906 | 60 | 86 | 0.0 | 0.0 | 0.00 | 0.00 | 0.00 | 74 | 1017.5 |
| 20260502021907 | 60 | 86 | 0.0 | 0.0 | 0.00 | 0.00 | 0.00 | 71 | 1017.5 |
| 20260502020907 | 60 | 86 | 0.0 | 0.0 | 0.00 | 0.00 | 0.00 | 67 | 1017.3 |
| 20260502020346 | 60 | 86 | 0.0 | 0.0 | 0.00 | 0.00 | 0.00 | 68 | 1017.1 |
| 20260502014908 | 60 | 86 | 0.0 | 0.0 | 0.00 | 0.00 | 0.00 | 67 | 1016.8 |
| 20260502014346 | 61 | 86 | 0.0 | 0.0 | 0.00 | 0.00 | 0.00 | 66 | 1016.7 |
| 20260502012908 | 61 | 86 | 0.0 | 0.0 | 0.00 | 0.00 | 0.00 | 66 | 1016.5 |
| 20260502012340 | 62 | 86 | 0.0 | 0.0 | 0.00 | 0.00 | 0.00 | 66 | 1016.2 |
| 20260502010908 | 62 | 86 | 0.0 | 0.0 | 0.00 | 0.00 | 0.00 | 65 | 1015.9 |
| 20260502005908 | 63 | 86 | 0.0 | 0.0 | 0.00 | 0.00 | 0.00 | 64 | 1015.9 |
| 20260502004907 | 63 | 86 | 0.0 | 0.0 | 0.00 | 0.00 | 0.00 | 62 | 1015.8 |
| 20260502003908 | 63 | 86 | 0.0 | 0.0 | 0.00 | 0.00 | 0.00 | 62 | 1015.7 |
| 20260502002907 | 63 | 86 | 0.0 | 0.0 | 0.00 | 0.00 | 0.00 | 61 | 1015.5 |
| 20260502001908 | 64 | 86 | 0.0 | 0.0 | 0.00 | 0.00 | 0.00 | 61 | 1015.5 |
| 20260502001347 | 65 | 86 | 0.0 | 0.0 | 0.00 | 0.00 | 0.00 | 60 | 1015.2 |
| 20260502000832 | 65 | 86 | 0.0 | 0.0 | 0.00 | 0.00 | 0.00 | 60 | 1015.2 |
| 20260501234909 | 65 | 86 | 0.0 | 0.0 | 0.00 | 0.00 | 0.00 | 59 | 1015.1 |
| 20260501233907 | 65 | 86 | 0.0 | 0.0 | 0.00 | 0.00 | 0.00 | 59 | 1014.8 |
| 20260501232908 | 66 | 86 | 0.0 | 0.0 | 0.00 | 0.00 | 0.00 | 56 | 1014.7 |
| 20260501231908 | 66 | 86 | 0.0 | 1.0 | 0.00 | 0.00 | 0.00 | 55 | 1014.7 |
| 20260501230908 | 66 | 80 | 0.0 | 2.0 | 0.00 | 0.00 | 0.00 | 55 | 1014.6 |
| 20260501225908 | 66 | 32 | 1.0 | 2.0 | 0.00 | 0.00 | 0.00 | 57 | 1014.6 |
| 20260501225343 | 65 | 165 | 0.0 | 3.0 | 0.00 | 0.00 | 0.00 | 59 | 1014.7 |
| 20260501223908 | 65 | 35 | 2.0 | 4.0 | 0.00 | 0.00 | 0.00 | 56 | 1014.6 |
| 20260501223344 | 66 | 82 | 0.0 | 4.0 | 0.00 | 0.00 | 0.00 | 55 | 1014.5 |
| 20260501221902 | 65 | 39 | 0.0 | 3.0 | 0.00 | 0.00 | 0.00 | 59 | 1014.5 |
| 20260501221333 | 65 | 35 | 0.0 | 5.0 | 0.00 | 0.00 | 0.00 | 58 | 1014.5 |
| 20260501215902 | 65 | 54 | 3.0 | 6.0 | 0.00 | 0.00 | 0.00 | 56 | 1014.5 |
| 20260501214901 | 65 | 66 | 2.0 | 7.0 | 0.00 | 0.00 | 0.00 | 59 | 1014.5 |
| 20260501213901 | 65 | 68 | 2.0 | 7.0 | 0.00 | 0.00 | 0.00 | 58 | 1014.4 |
| 20260501212902 | 65 | 35 | 5.0 | 11.0 | 0.00 | 0.00 | 0.00 | 59 | 1014.5 |
| 20260501211901 | 65 | 59 | 2.0 | 7.0 | 0.00 | 0.00 | 0.00 | 56 | 1014.8 |
| 20260501210901 | 65 | 96 | 0.0 | 9.0 | 0.00 | 0.00 | 0.00 | 58 | 1015.1 |
| 20260501205901 | 65 | 96 | 1.0 | 12.0 | 0.00 | 0.00 | 0.00 | 59 | 1015.2 |
| 20260501204900 | 65 | 62 | 2.0 | 9.0 | 0.00 | 0.00 | 0.00 | 58 | 1015.4 |
| 20260501203901 | 65 | 39 | 2.0 | 5.0 | 0.00 | 0.00 | 0.00 | 57 | 1015.5 |
| 20260501202901 | 65 | 75 | 2.0 | 7.0 | 0.00 | 0.00 | 0.00 | 56 | 1015.5 |
| 20260501202335 | 65 | 63 | 4.0 | 6.0 | 0.00 | 0.00 | 0.00 | 54 | 1015.7 |
| 20260501201342 | 65 | 87 | 2.0 | 6.0 | 0.00 | 0.00 | 0.00 | 55 | 1015.7 |
| 20260501195900 | 64 | 24 | 4.0 | 12.0 | 0.00 | 0.00 | 0.00 | 55 | 1015.7 |
| 20260501194901 | 65 | 59 | 8.0 | 13.0 | 0.00 | 0.00 | 0.00 | 55 | 1015.3 |
| 20260501193901 | 65 | 28 | 6.0 | 15.0 | 0.00 | 0.00 | 0.00 | 54 | 1015.1 |
| 20260501192859 | 64 | 76 | 2.0 | 11.0 | 0.00 | 0.00 | 0.00 | 54 | 1015.3 |
| 20260501191854 | 64 | 39 | 6.0 | 13.0 | 0.00 | 0.00 | 0.00 | 53 | 1015.1 |
| 20260501190849 | 64 | 48 | 7.0 | 15.0 | 0.00 | 0.00 | 0.00 | 56 | 1014.9 |
| 20260501190327 | 65 | 142 | 3.0 | 12.0 | 0.00 | 0.00 | 0.00 | 56 | 1015.1 |
| 20260501184838 | 65 | 80 | 5.0 | 15.0 | 0.00 | 0.00 | 0.00 | 54 | 1014.9 |
| 20260501183834 | 65 | 89 | 4.0 | 11.0 | 0.00 | 0.00 | 0.00 | 55 | 1015.1 |
| 20260501182832 | 65 | 103 | 7.0 | 17.0 | 0.00 | 0.00 | 0.00 | 52 | 1015.3 |
| 20260501182312 | 65 | 55 | 4.0 | 15.0 | 0.00 | 0.00 | 0.00 | 55 | 1015.4 |
| 20260501180830 | 65 | 25 | 5.0 | 14.0 | 0.00 | 0.00 | 0.00 | 54 | 1015.4 |